Location: ????????
(55.6189°N, 38.3031°E)
Time: 10:41:52
(UTC+00:00)

IDEFIX/ARIANE 42P - Pass Details

Date: 15 November 2019
Orbit: 784 x 804 km, 98.3° (Epoch: 11 December)

Event Time Altitude Azimuth Distance (km) Brightness Sun altitude
Rises 03:17:30 0° 10° (N) 3,300 5.8 -14.2°
Reaches altitude 10° 03:20:24 10° 355° (N) 2,364 4.9 -13.8°
Maximum altitude 03:24:04 20° 309° (NW) 1,767 3.9 -13.3°
Enters shadow 03:25:13 19° 292° (WNW) 1,832 3.8 -13.2°
